Regional Weather Roundup
Issued by NWS Cleveland, OH

Home | Current Version | Previous Version | Graphics & Text | Print | Product List | Glossary On
Versions: 1 2 3 4 5 6 7 8 9 10 11 12 13 14 15 16 17 18 19 20 21 22 23 24 25 26 27 28 29 30 31 32 33 34 35 36 37 38 39 40 41 42 43 44 45 46 47 48 49 50
000
ASUS41 KCLE 302012
RWRCLE
OHIO REGIONAL WEATHER ROUNDUP
NATIONAL WEATHER SERVICE WILMINGTON, OH
400 PM EDT THU MAR 30 2017

NOTE: "FAIR" INDICATES FEW OR NO CLOUDS BELOW 12,000 FEET WITH NO
SIGNIFICANT WEATHER AND/OR OBSTRUCTIONS TO VISIBILITY.

OHZ001>008-015>018-024>027-034-035-043-044-302100-
   NORTHWEST OHIO

CITY           SKY/WX    TMP DP  RH WIND       PRES   REMARKS
DEFIANCE       LGT RAIN  42  40  92 E14       29.71F FOG
FINDLAY        TSTM      48  44  86 NE14      29.69F FOG
TOLEDO EXPRESS LGT RAIN  39  39 100 E14G23    29.75F FOG
TOLEDO EXEC    LGT RAIN  41  40  96 NE7       29.80F FOG
LIMA           PTSUNNY   52  50  93 E10       29.69F
$$

OHZ009>014-019>023-028>033-038-089-302100-
   NORTHEAST OHIO

CITY           SKY/WX    TMP DP  RH WIND       PRES   REMARKS
CLE-HOPKINS    CLOUDY    50  39  66 E13G22    29.81F
CLE-LAKEFRONT  CLOUDY    48  39  71 E10       29.79F
CUY CO. ARPT   CLOUDY    46  41  81 SE18G32   29.80F
LORAIN-ELYRIA  LGT RAIN  48  40  73 SE12      29.76F
ASHTABULA      FAIR      42  37  82 SE17G29   29.85F
AKRON-CANTON   CLOUDY    54  41  61 E21G28    29.79F
WOOSTER        FAIR      55  43  63 E15       29.75F
MANSFIELD      FAIR      59  46  62 SE17      29.71F
YOUNGSTOWN     CLOUDY    45  37  73 E15G23    29.85F
$$

OHZ042-051>053-060>062-070>072-077>081-302100-
  SOUTHWEST OHIO

CITY           SKY/WX    TMP DP  RH WIND       PRES   REMARKS
CINC-COVINGTON CLOUDY    77  50  38 S21G31    29.63F
CINC-LUNKEN    FAIR      76  55  48 S16G25    29.63F
HAMILTON       PTSUNNY   79  50  36 S15G24    29.63S
DAYTON         PTSUNNY   76  51  41 S13       29.62F
WRIGHT-PAT AFB CLOUDY    77  48  35 S17G24    29.62F
DAYTON GENERAL FAIR      76  49  38 S16G30    29.62F
WILMINGTON     FAIR      74  55  51 S18G25    29.65F
$$

OHZ036-037-039>041-045>050-054>059-063>069-073>076-082>088-302100-
  CENTRAL AND SOUTHEAST OHIO

CITY           SKY/WX    TMP DP  RH WIND       PRES   REMARKS
COLUMBUS       PTSUNNY   74  53  48 S13G23    29.68F
OSU AIRPORT    FAIR      73  55  53 S14       29.67F
BOLTON FIELD   NOT AVBL
RICKENBACK AFB FAIR      74  55  51 S13       29.67F
NEWARK         FAIR      74  53  48 SE6       29.68F
MARION         FAIR      66  51  58 SE13      29.69F
LANCASTER      FAIR      78  55  44 SW16      29.69F
ZANESVILLE     FAIR      70  53  54 E10       29.72F
NEW PHILLY     FAIR      58  47  66 E10       29.78F
$$



USA.gov is the U.S. government's official web portal to all federal, state and local government web resources and services.